Wind_Speed
5 6 7 8 8 8 9 9 9 10 10 10 11 11 11 11 12 12 12 12 12 11 11 11 10 10 9 8 8 7 7 6 5 5 5 5 6 6 7 7 7 7 7 7 6 4 4 5 7 8 7 7 6 7 7 6 5 3 3 2 2 1 1 1 2 2 3 2 3 3 3 4 6 8 9 10 9 9 10 11 13 12 12 12 12
4 5 6 8 8 8 9 10 9 10 11 11 11 11 12 12 12 13 12 12 11 11 11 11 10 9 9 8 7 6 6 5 5 4 4 4 4 4 4 4 5 7 7 7 6 5 4 5 6 8 8 7 6 6 6 5 3 2 2 2 2 2 2 2 3 3 3 3 4 5 4 4 7 9 10 11 10 10 10 12 13 12 12 12 12
4 5 5 7 8 8 9 10 10 11 12 12 12 12 12 13 13 13 13 12 11 11 11 11 10 8 8 7 7 6 5 5 4 4 4 4 3 3 2 2 3 5 6 7 7 7 6 5 6 7 7 7 7 6 5 3 2 1 1 2 2 3 3 3 4 4 4 4 5 6 6 6 7 10 11 11 11 11 11 12 13 12 11 12 12
3 5 5 6 7 8 9 10 11 11 12 12 12 12 13 13 13 13 12 12 11 11 11 10 9 8 7 7 7 6 6 5 4 4 4 4 4 2 1 1 2 3 5 6 6 7 6 6 5 5 5 6 6 5 4 2 2 1 2 3 3 3 4 4 5 5 5 6 7 7 7 8 9 11 11 11 11 11 12 12 13 12 12 13 14
3 4 4 6 7 8 9 10 11 11 12 12 12 12 12 13 13 12 12 11 11 11 10 9 8 8 7 7 7 6 6 6 5 5 5 5 4 3 2 2 3 3 4 5 5 5 6 6 6 5 4 4 4 4 3 2 3 4 4 3 3 3 4 5 6 7 7 8 8 8 9 10 10 12 12 12 13 12 12 12 12 12 13 14 14
3 4 4 5 7 8 9 10 11 11 12 12 12 12 12 12 12 12 11 10 11 10 9 8 8 8 8 8 7 6 6 6 6 6 5 5 4 4 4 5 4 3 3 5 4 5 6 6 6 5 4 4 4 3 2 2 3 5 5 3 3 4 4 6 8 9 10 10 10 11 11 12 12 13 13 14 14 13 12 12 13 13 14 15 13
4 4 4 5 6 8 10 11 11 11 12 12 12 11 11 12 12 11 10 10 10 9 8 8 8 8 8 8 7 7 6 6 6 5 5 5 4 5 5 4 5 4 4 5 5 5 6 6 6 6 6 6 6 5 4 3 4 6 6 4 6 7 6 8 10 10 11 12 13 13 14 15 15 15 15 14 14 13 13 13 14 14 15 14 13
4 5 5 6 7 9 10 11 11 11 12 12 12 11 12 12 11 11 10 10 10 9 8 8 8 8 8 8 8 7 7 6 6 6 6 6 5 5 5 4 5 5 6 6 6 6 7 7 7 8 9 8 8 7 6 5 5 7 6 6 8 10 10 12 13 14 15 15 15 16 17 17 17 17 17 15 14 14 13 14 14 15 14 14 13
5 5 6 7 7 9 10 11 11 12 12 13 12 12 12 12 11 11 11 10 9 9 8 8 8 8 8 8 8 8 7 7 7 7 8 8 7 6 6 6 6 6 7 8 8 8 9 9 9 10 10 10 10 9 8 8 8 9 9 9 10 11 13 15 15 16 17 17 18 19 19 19 18 17 17 15 14 14 14 15 15 15 14 14 14
5 6 6 7 8 10 11 11 12 12 13 13 12 12 12 11 11 11 11 10 10 9 8 8 8 8 8 8 8 8 8 8 9 9 9 9 9 9 9 9 8 7 7 10 10 10 10 11 12 12 11 11 11 10 10 10 10 11 11 11 11 12 13 15 16 18 19 20 20 21 20 19 18 17 16 15 15 15 15 16 16 15 15 15 15
6 6 7 8 8 10 11 12 13 13 13 13 13 12 12 12 11 11 11 10 10 10 9 8 8 8 8 8 9 9 8 9 10 11 11 11 11 11 11 11 11 9 8 10 12 12 13 13 13 13 13 13 12 12 12 13 14 14 14 14 14 15 16 17 18 20 21 21 21 21 20 19 17 17 16 16 16 16 16 16 15 15 15 16 16
7 7 7 8 9 10 11 12 13 14 14 13 13 13 12 12 11 11 11 11 11 11 10 9 9 8 8 9 9 9 9 10 11 12 12 12 12 13 13 13 13 12 10 10 11 13 14 14 13 14 14 13 13 14 15 17 17 17 17 17 17 18 19 19 20 21 22 22 21 20 19 18 17 17 16 16 16 16 16 15 15 15 16 16 16
8 8 8 9 9 10 11 11 13 14 14 13 13 13 12 11 11 11 12 12 12 12 11 10 10 10 10 9 9 10 11 12 12 13 13 13 13 14 14 14 14 14 13 12 12 13 14 14 14 14 14 13 13 15 17 18 19 19 19 19 19 20 21 21 21 21 21 21 20 19 18 17 16 16 16 15 15 16 16 15 15 15 15 15 16
8 9 9 9 9 9 10 11 13 14 14 13 12 12 11 11 11 12 13 13 13 12 12 11 11 11 11 11 11 12 12 13 13 14 14 14 14 15 15 15 14 14 14 14 14 14 14 14 14 14 14 14 14 16 17 19 20 21 21 21 21 21 22 21 20 20 20 19 19 18 17 16 16 15 15 15 15 15 15 15 15 14 15 15 15
7 9 10 9 9 10 10 11 12 13 13 13 12 11 11 11 12 13 13 13 13 13 12 12 12 12 12 12 12 13 13 14 14 14 14 14 15 15 15 15 14 14 14 14 14 14 15 15 15 15 14 14 15 17 18 19 20 21 22 22 22 21 21 20 19 18 18 17 17 17 16 15 15 15 14 14 14 14 15 15 14 14 14 15 14
7 9 10 10 10 10 10 11 12 13 12 12 11 11 11 11 12 13 14 14 13 13 13 13 13 13 13 13 13 13 14 14 14 15 15 15 16 15 15 15 15 14 14 14 14 15 15 15 15 15 15 15 16 17 18 19 19 20 21 21 21 20 19 18 17 16 15 15 15 15 14 14 14 14 14 14 14 14 15 15 15 14 14 14 15
8 9 11 11 11 11 11 11 11 12 12 11 11 11 11 12 13 14 14 14 13 13 13 14 14 14 14 14 13 13 14 15 15 15 15 15 16 16 16 15 15 14 14 14 14 15 15 15 15 15 15 16 17 18 18 18 19 19 19 19 19 18 17 16 15 14 14 13 13 13 12 13 13 13 14 14 14 14 14 15 14 14 14 15 17
9 10 11 11 11 11 11 12 11 12 11 11 12 12 12 12 13 14 14 13 13 13 14 14 14 14 14 14 14 14 15 15 16 16 16 16 16 16 16 16 15 14 14 14 14 14 14 14 15 15 15 16 16 16 17 17 17 17 17 16 16 16 15 14 13 12 12 11 11 11 11 12 12 13 13 13 14 14 14 15 15 15 16 18 21
10 11 12 11 11 11 12 12 12 12 11 11 12 12 13 13 13 14 14 13 13 14 14 14 14 15 15 15 15 15 16 16 16 16 16 16 17 17 17 16 15 15 14 13 13 13 13 13 14 14 14 14 14 15 15 16 16 16 15 14 14 13 13 12 11 10 10 10 10 10 11 11 11 12 12 13 13 14 14 15 16 18 20 22 24
10 12 12 12 11 11 12 12 12 12 12 11 11 13 13 13 13 13 13 13 13 14 14 14 15 15 15 15 15 16 16 16 16 16 17 17 18 18 17 17 16 16 15 14 13 12 12 11 11 12 13 14 14 14 15 15 15 15 14 13 12 11 11 10 10 9 9 9 10 10 10 10 10 11 11 12 13 14 15 17 19 22 24 25 25
9 12 13 12 11 11 12 12 12 12 12 11 12 13 14 14 13 13 13 13 13 14 14 14 15 16 16 15 15 16 17 17 17 17 17 17 18 18 18 17 17 16 15 14 13 13 12 11 10 10 11 13 14 14 14 14 14 14 13 12 11 10 10 10 10 10 9 9 9 9 9 10 10 11 12 13 15 17 19 21 24 25 26 25 25
9 12 13 12 12 11 12 12 12 12 12 12 13 14 14 14 13 13 13 13 13 13 13 13 14 15 16 15 15 16 17 17 17 17 17 17 18 18 18 17 17 17 16 15 15 14 13 12 11 11 11 11 12 13 14 14 13 13 12 11 11 10 10 11 11 11 10 10 10 10 11 11 12 14 15 17 19 22 24 26 26 27 26 25 23
9 12 14 13 12 12 12 12 12 12 12 12 13 15 14 14 13 13 13 13 13 13 13 13 13 14 15 15 15 16 17 18 17 17 17 17 17 18 18 18 18 17 17 16 16 15 14 13 12 12 12 11 11 12 13 13 12 12 11 11 11 12 12 13 13 13 13 14 14 14 15 16 18 19 21 23 25 26 27 27 27 26 24 23 21
8 11 14 14 13 12 12 12 12 11 12 12 14 15 14 14 13 12 13 13 12 12 12 12 12 13 13 14 15 16 17 17 17 16 16 17 17 17 17 18 18 18 17 17 16 16 15 14 13 13 12 12 11 12 13 13 13 12 12 12 13 13 14 16 17 17 17 17 18 19 21 22 24 25 27 28 28 28 27 26 25 24 22 21 20
8 10 13 14 13 12 12 12 12 11 11 12 14 15 14 13 13 12 12 12 12 12 12 11 12 12 12 13 14 15 16 16 16 16 15 16 17 17 17 17 18 18 18 17 16 16 15 14 14 13 13 12 12 12 13 14 14 14 13 14 15 16 17 19 20 20 20 21 22 24 25 26 27 28 28 28 27 27 26 24 23 22 21 20 19
8 9 11 13 13 12 11 11 12 11 10 11 14 14 14 12 12 12 12 11 11 11 11 11 11 11 11 11 12 13 15 16 15 15 15 16 16 17 17 17 17 17 17 17 16 16 15 15 14 14 13 13 13 14 14 14 15 15 15 16 17 18 19 21 21 21 22 22 23 25 26 26 26 26 26 26 26 25 24 23 22 21 21 20 20
8 9 10 12 13 12 12 11 12 11 11 11 14 15 14 12 11 11 11 11 11 10 11 11 11 10 10 10 11 12 13 15 15 15 14 15 16 16 17 17 17 16 16 16 16 16 16 15 15 15 14 14 15 16 16 16 16 17 17 17 18 19 20 21 21 21 22 22 23 24 25 25 25 25 25 24 24 24 23 23 23 22 22 21 21
8 9 10 12 12 12 12 12 12 11 11 12 14 15 14 12 11 11 11 11 10 10 10 10 10 10 10 10 11 11 11 13 14 14 14 15 16 15 16 16 16 15 15 15 16 16 17 16 16 16 15 15 16 17 17 17 17 18 18 18 18 19 20 20 19 20 21 21 22 23 24 24 24 23 23 24 24 24 24 24 23 23 22 22 21
9 9 10 12 12 12 12 12 12 12 11 12 13 15 14 12 11 10 10 10 9 9 9 10 9 9 10 10 11 11 10 11 12 13 13 14 15 15 15 16 16 15 15 14 15 16 17 17 16 16 16 16 16 17 18 18 18 18 18 19 19 19 19 19 19 19 20 21 22 22 22 23 23 23 23 24 24 25 25 24 23 23 22 21 20
9 10 10 11 12 12 12 12 13 12 12 11 13 15 14 12 11 10 10 9 9 9 9 10 9 9 10 11 12 12 10 10 11 12 12 13 14 14 14 15 15 15 15 14 14 15 17 17 17 16 16 16 17 18 18 19 19 19 19 19 19 20 20 19 18 19 20 20 21 21 22 22 22 23 24 24 25 25 24 23 23 22 21 20 19
9 10 10 11 12 12 12 12 13 13 12 12 13 14 14 12 11 10 9 8 8 8 9 10 11 11 11 11 12 12 11 11 11 11 12 12 13 13 13 14 14 14 15 15 14 14 16 17 16 16 16 16 17 18 19 19 19 19 19 18 19 21 20 18 18 19 19 20 21 21 22 22 23 23 24 24 24 24 23 22 21 21 20 20 19
9 10 10 11 13 13 13 13 13 13 13 12 13 14 14 12 11 9 9 8 8 9 9 11 11 11 12 12 12 12 12 11 11 11 12 12 12 13 13 14 14 13 13 14 14 14 15 15 15 15 16 16 17 18 19 19 19 19 19 19 19 20 20 19 18 19 19 20 20 21 22 22 23 23 24 23 23 22 21 21 20 20 20 20 20
10 10 10 10 12 14 14 13 14 14 13 13 13 14 14 13 11 9 9 9 9 9 10 10 11 11 11 12 12 13 12 12 11 11 12 12 12 12 13 14 14 13 13 13 14 13 14 14 14 15 15 16 17 18 18 19 20 20 19 19 18 19 20 19 19 19 19 19 20 21 22 23 23 23 22 22 21 20 20 19 19 19 20 20 20
10 9 10 10 12 14 15 15 14 15 14 13 13 13 14 12 10 9 8 9 9 10 10 10 10 10 11 11 12 13 13 13 12 12 12 12 12 12 13 13 14 13 13 13 14 13 13 13 14 14 14 16 17 17 18 19 19 19 19 19 18 18 19 19 19 19 19 19 20 21 22 22 22 21 20 19 19 18 18 18 19 19 20 20 19
10 9 9 10 12 14 16 16 15 15 15 15 14 14 13 12 10 9 8 9 10 10 10 10 10 10 11 12 12 13 13 13 13 13 13 12 12 13 13 13 13 13 13 13 13 13 13 13 14 13 14 15 16 16 17 17 18 18 18 17 17 17 17 18 18 18 19 20 20 21 21 21 20 20 18 17 17 17 17 18 19 20 20 19 18
11 10 9 10 12 14 16 16 16 16 16 15 15 14 12 11 10 9 9 9 10 10 10 10 11 11 12 12 13 12 13 13 13 13 14 13 13 13 14 14 13 14 14 14 14 13 13 13 14 13 14 15 16 16 16 16 17 17 16 16 15 15 15 16 17 18 19 19 20 19 19 19 19 17 16 16 15 16 16 18 19 20 19 18 16
12 11 10 10 12 15 17 17 17 17 16 16 16 14 12 10 9 9 10 9 10 10 10 10 11 11 12 13 13 12 12 12 12 13 13 13 13 13 14 14 14 14 15 15 14 13 13 13 13 13 13 14 15 16 15 15 16 16 15 15 14 14 14 16 17 18 18 18 18 18 17 17 17 16 14 14 15 15 16 17 18 18 17 16 15
12 11 10 10 12 16 18 18 18 17 16 17 16 14 12 9 9 10 10 10 10 10 10 11 11 12 13 12 12 12 12 12 12 12 12 12 12 12 13 13 13 14 15 15 14 14 13 12 12 13 13 13 14 15 14 14 15 16 15 15 15 14 14 15 16 17 17 17 16 16 16 16 15 14 13 13 14 14 15 17 17 16 16 15 15
12 12 10 11 13 16 18 19 19 18 17 18 16 13 11 9 9 10 11 11 10 10 11 11 11 12 13 12 12 12 13 13 12 13 13 12 12 12 13 13 13 14 14 15 14 14 13 12 12 12 13 13 14 14 14 14 14 15 15 15 15 15 14 15 17 17 16 15 15 14 14 14 14 13 12 13 13 14 14 15 15 15 15 15 15
12 12 12 11 14 17 18 19 19 19 19 18 16 14 11 10 10 10 11 12 11 11 11 12 12 12 12 12 12 13 13 13 13 14 14 13 13 13 14 14 13 13 13 14 14 14 13 12 11 11 12 13 13 13 13 13 13 14 14 14 14 14 15 16 16 16 15 13 12 12 12 13 13 12 12 12 12 13 13 13 14 14 15 16 16
12 12 12 12 15 19 20 20 20 21 20 18 16 15 13 11 11 11 11 12 12 12 12 13 13 12 12 12 12 13 13 13 14 14 14 14 14 14 14 14 14 13 13 14 15 15 14 13 12 11 11 12 12 13 13 13 13 13 13 13 13 14 14 15 16 15 14 12 11 10 10 11 11 11 11 11 11 12 12 12 13 14 15 17 18
12 12 13 13 15 19 21 21 21 23 21 18 17 15 13 12 11 11 12 12 12 12 12 12 13 12 11 11 11 12 13 13 13 13 14 14 14 15 15 15 15 14 14 15 15 15 15 14 12 12 12 12 12 12 13 13 12 13 13 13 13 13 13 13 13 13 12 12 10 9 8 8 10 10 9 9 11 11 12 12 13 15 16 18 19
12 11 12 13 15 18 20 21 23 23 21 18 16 14 12 11 10 11 12 12 12 12 12 12 12 12 11 11 11 12 13 13 13 13 13 14 14 15 15 15 15 15 15 15 15 15 15 14 13 12 12 12 12 12 12 11 11 11 12 12 13 13 13 13 12 10 10 10 10 7 6 6 8 9 7 7 10 12 13 13 14 16 17 18 19
11 10 11 13 15 18 20 22 23 23 20 18 16 13 11 10 10 10 11 12 13 13 13 12 12 12 12 12 12 13 13 13 13 13 14 14 15 15 16 15 15 15 15 15 15 15 15 14 13 12 12 12 12 11 10 10 10 10 10 11 12 12 13 12 11 9 8 9 9 7 6 5 6 7 6 7 10 13 13 14 15 16 17 18 18
11 12 12 14 16 18 21 22 24 23 20 17 15 14 12 10 10 10 11 12 13 13 13 14 13 13 13 13 13 14 14 14 14 13 14 15 15 16 16 15 15 15 14 14 14 14 14 13 12 12 12 12 11 10 8 8 9 10 10 11 11 12 12 12 11 9 8 7 8 8 6 5 5 6 6 7 10 13 14 15 15 16 16 17 18
11 13 13 14 15 18 20 22 23 23 20 17 15 15 14 13 13 14 14 14 15 15 14 14 15 14 14 14 14 14 14 14 14 13 14 14 15 15 15 15 15 14 14 14 14 14 13 12 12 12 11 10 9 8 8 8 9 9 11 12 11 11 11 12 11 9 7 7 8 9 7 4 4 6 7 8 10 12 14 15 15 16 16 17 17
11 13 14 14 14 16 19 21 23 23 20 18 16 16 16 15 15 16 16 16 16 16 15 14 14 14 14 14 14 14 14 14 14 13 13 14 14 14 14 14 14 14 14 14 14 13 13 12 11 11 10 9 8 8 7 8 9 10 11 12 12 11 10 10 10 9 7 7 8 9 7 4 5 6 8 9 10 12 14 15 15 16 16 17 17
10 11 13 14 15 16 18 21 22 22 21 19 18 17 17 16 15 14 14 15 16 16 15 15 15 14 13 13 14 14 13 13 13 13 13 13 13 14 13 14 14 14 13 13 13 13 13 12 11 10 9 9 8 9 9 8 10 12 11 10 11 10 9 8 9 8 8 8 9 10 7 5 6 8 9 10 11 12 13 14 15 16 16 17 16
10 11 13 15 16 17 18 20 22 22 22 20 19 18 17 16 14 13 13 14 15 15 14 14 14 13 12 12 12 13 13 12 12 12 12 12 13 13 13 13 13 13 13 13 13 13 12 12 11 10 10 9 9 10 11 10 10 12 12 10 9 9 8 7 7 8 8 9 10 10 7 6 7 9 10 11 11 11 12 14 15 16 16 16 15
11 11 13 15 16 17 18 19 21 22 22 21 19 18 17 15 14 13 13 14 15 15 14 13 12 12 12 12 12 12 12 11 11 11 11 11 11 11 11 11 12 12 12 12 12 12 12 12 11 11 10 10 10 10 11 11 10 10 11 10 10 8 7 7 7 7 8 9 11 10 9 8 8 9 10 11 11 12 12 13 15 15 16 15 14
11 10 10 13 15 17 18 20 21 22 22 21 19 18 17 16 15 14 14 15 16 16 16 15 14 13 12 11 11 11 11 11 10 10 10 10 10 10 10 10 10 11 10 10 11 11 11 10 11 11 10 10 10 10 10 11 10 9 9 10 10 8 7 7 7 8 8 8 10 10 10 10 10 10 11 11 11 11 12 13 14 15 15 15 14
Wind_Direction
85 101 106 110 106 106 109 102 101 103 100 98 97 96 96 96 95 95 94 93 92 90 89 88 86 85 85 84 83 82 80 78 75 74 78 84 93 103 113 122 130 131 132 132 130 132 135 131 127 126 121 112 101 92 91 91 87 80 82 73 68 36 13 68 65 67 87 88 98 118 129 112 109 111 111 112 109 104 102 103 99 97 95 94 93
96 93 101 111 105 106 108 103 104 104 102 101 100 98 98 96 94 92 91 90 89 88 87 85 84 83 83 83 83 81 80 76 73 68 64 65 70 80 99 118 128 128 126 129 134 139 146 143 137 134 132 128 118 106 101 97 91 81 75 66 74 80 67 71 69 74 92 99 114 128 132 124 118 117 117 114 112 107 104 102 98 96 93 90 90
99 93 96 105 104 108 109 107 107 104 102 102 100 99 97 95 92 91 91 90 89 87 84 83 83 85 85 84 81 75 70 67 66 62 57 55 49 51 68 114 119 119 124 133 139 144 152 156 146 139 139 135 128 118 111 101 93 83 71 74 80 85 81 77 79 82 94 114 126 126 128 134 126 119 117 114 113 109 103 99 96 93 89 86 88
94 92 92 98 104 109 109 108 106 104 103 102 100 99 98 95 94 93 92 91 89 86 84 86 86 86 84 79 75 71 66 62 57 52 48 42 36 24 357 80 97 107 124 128 132 138 143 149 147 143 147 140 125 112 104 97 96 89 79 80 77 86 95 90 85 85 97 113 117 121 134 138 128 117 113 112 113 109 101 98 94 90 85 86 87
92 92 94 99 107 107 106 106 106 106 105 103 102 101 99 97 97 96 94 92 90 88 88 90 90 88 85 81 76 72 66 59 54 47 41 33 25 0 4 55 74 98 114 111 117 127 129 135 137 149 169 153 122 106 103 111 106 95 85 82 87 92 94 95 91 90 97 103 112 129 139 130 118 112 111 112 113 109 103 99 93 87 86 87 83
103 98 102 106 107 107 107 109 109 109 107 105 104 104 103 101 99 99 99 96 94 93 95 96 96 94 90 86 79 75 67 59 52 45 42 35 21 7 34 60 59 70 84 92 104 114 119 124 129 146 166 150 128 114 103 105 98 95 97 99 105 95 82 89 88 88 97 109 124 135 130 114 107 109 111 112 110 107 102 96 90 85 86 86 80
114 110 112 112 112 113 113 113 112 111 109 107 107 107 105 104 104 104 103 100 98 99 102 103 101 98 94 90 83 79 75 68 60 56 57 52 38 25 39 57 60 69 73 83 97 109 115 117 121 133 141 142 136 119 101 88 77 84 99 112 110 102 93 95 97 103 112 121 127 125 115 107 106 109 110 110 108 105 99 93 88 87 88 84 77
123 125 126 124 123 121 118 117 114 112 110 109 109 109 108 108 108 108 106 104 105 108 109 106 103 100 97 93 90 87 84 78 74 72 73 72 64 48 40 47 61 78 84 86 94 103 106 108 114 123 129 130 121 110 106 97 80 73 84 102 106 110 115 117 118 120 121 120 117 111 107 106 109 109 110 109 107 103 98 93 89 89 87 81 77
128 132 136 133 131 126 122 120 116 112 109 109 110 110 110 109 109 108 108 110 111 111 107 104 103 101 97 94 93 95 93 85 78 74 74 77 74 67 54 47 51 66 85 94 95 95 97 102 106 110 115 114 110 110 107 99 90 81 82 94 100 108 113 114 113 110 111 112 109 107 107 108 109 109 108 106 103 100 96 92 89 87 84 80 76
132 136 140 135 133 128 127 125 118 113 110 110 111 111 111 109 109 110 112 113 113 109 104 103 101 98 95 94 95 97 96 88 83 78 75 76 75 73 65 56 55 55 69 89 96 98 100 104 105 106 107 106 106 104 100 95 93 90 90 94 96 99 100 99 99 99 103 107 108 108 109 110 110 109 107 104 100 96 92 90 88 86 83 80 75
137 141 143 136 135 132 131 129 120 114 112 112 113 113 113 113 113 114 115 114 112 109 107 106 102 97 94 95 97 97 95 89 85 80 77 76 75 75 73 70 69 66 65 81 95 101 103 104 102 102 100 98 97 94 92 91 90 92 94 96 97 98 99 101 101 102 105 107 109 110 110 111 112 109 106 103 99 94 91 88 85 84 81 78 75
143 144 143 137 137 135 132 125 117 114 113 114 115 115 117 117 118 116 114 112 112 110 109 109 104 99 98 99 101 98 94 89 84 80 77 75 76 76 78 81 81 80 78 81 89 94 96 94 90 90 91 93 93 91 93 93 92 94 96 98 101 104 106 107 106 106 107 109 111 111 112 112 111 108 104 102 98 95 91 87 85 82 80 78 76
146 144 142 137 136 133 127 121 116 114 114 116 116 118 121 120 116 112 110 111 110 109 110 109 106 103 102 102 101 97 92 87 84 80 78 76 76 77 80 85 87 88 89 87 85 87 89 88 86 86 88 91 92 94 96 96 97 98 101 104 106 108 108 108 108 109 110 111 113 113 113 112 109 106 104 101 98 95 92 88 86 83 81 78 76
148 145 141 137 135 129 125 123 119 116 116 117 118 121 120 114 108 107 108 109 108 109 110 110 108 107 104 100 96 93 90 87 85 81 79 76 76 78 82 87 90 91 93 93 91 91 92 92 94 93 92 92 94 98 99 98 100 102 105 107 107 107 107 108 109 110 111 112 113 112 111 110 107 104 101 98 95 94 92 90 87 85 81 78 78
150 147 143 137 134 131 130 127 120 117 117 119 120 119 114 109 107 108 108 107 107 108 108 109 108 106 102 98 94 92 91 88 86 83 80 77 77 79 84 89 92 93 95 96 97 98 97 96 97 97 96 97 100 102 101 101 104 106 107 108 107 107 107 108 108 109 110 111 111 109 108 106 103 99 97 95 95 94 93 92 89 86 83 82 82
155 151 146 140 137 136 134 129 122 119 119 120 119 115 111 111 112 110 108 107 107 106 104 104 103 102 99 96 94 92 90 87 85 83 81 79 78 79 84 89 93 95 95 97 100 101 100 99 100 100 100 102 104 105 104 105 108 109 109 109 109 108 108 107 107 107 108 108 107 106 105 102 99 97 97 97 97 95 95 93 92 90 89 88 85
157 155 149 143 140 142 139 134 129 123 121 121 116 114 114 116 115 111 109 107 105 102 99 98 98 99 98 96 93 91 89 87 85 83 82 80 80 81 84 90 94 96 97 100 102 103 103 103 105 105 105 106 106 107 108 108 110 110 109 109 108 108 107 106 106 107 107 106 105 104 103 101 100 100 100 100 99 99 99 98 99 98 94 90 88
158 156 151 146 143 146 144 140 136 128 125 122 118 117 117 117 114 110 108 106 103 99 96 95 96 98 97 96 93 91 89 87 85 84 85 84 84 84 86 91 95 99 101 103 103 104 106 107 109 108 107 105 106 108 109 110 112 111 110 108 108 108 108 108 108 109 109 108 107 106 105 103 103 105 106 107 107 107 106 105 103 98 93 92 94
158 155 152 150 148 149 148 143 139 132 128 125 121 120 120 117 112 109 107 105 101 98 95 95 96 97 95 93 92 91 90 89 88 87 88 87 86 86 87 90 94 98 101 102 102 104 107 110 111 112 110 107 107 109 110 111 113 113 111 110 109 109 109 110 109 108 108 108 107 107 107 106 108 111 112 112 111 109 107 104 99 96 96 98 99
158 154 153 153 151 151 149 145 141 135 130 129 125 123 122 117 112 110 107 103 99 96 93 93 94 95 92 91 91 92 93 92 91 91 91 89 87 88 88 89 91 94 96 99 101 105 110 113 115 116 114 111 111 111 110 110 112 113 113 112 111 109 108 107 104 102 101 101 103 106 108 109 112 114 113 110 106 103 100 98 98 99 100 101 100
159 156 155 155 152 152 152 147 143 138 133 132 129 126 124 119 115 113 108 103 99 96 94 93 94 94 93 92 92 92 93 93 93 93 92 92 90 89 89 89 89 91 95 99 102 107 113 117 119 116 114 114 116 115 111 110 111 112 113 112 111 109 108 105 102 99 98 98 100 102 104 106 107 106 103 100 99 99 100 101 102 102 101 99 98
158 157 157 156 154 154 154 150 144 140 134 133 131 129 127 121 118 115 110 105 101 97 96 95 94 95 96 95 94 93 92 92 93 94 94 94 93 91 90 89 88 89 93 98 102 106 111 117 121 121 119 119 121 119 115 112 112 112 112 112 111 110 108 105 100 97 95 94 93 93 95 97 98 98 99 100 102 103 103 103 102 101 99 98 97
156 157 158 158 157 157 157 151 145 140 136 134 132 132 130 125 123 119 112 107 103 98 96 96 96 97 99 98 96 94 92 92 92 94 95 95 94 92 91 90 90 89 90 93 97 101 106 112 117 119 122 123 122 121 118 115 113 111 112 113 113 111 107 102 95 91 90 89 90 92 95 97 99 101 103 104 104 103 102 101 100 99 99 99 99
153 157 160 160 160 160 159 152 144 139 136 134 133 134 132 127 125 120 114 110 105 99 97 97 98 98 99 100 99 96 93 91 91 92 94 96 95 94 93 92 92 92 92 92 93 95 99 104 109 113 119 122 122 121 120 117 114 112 114 115 113 109 104 98 93 91 91 92 95 97 98 100 101 102 102 102 102 101 100 99 98 98 99 98 97
148 155 161 162 163 163 160 151 143 138 136 134 134 136 133 129 126 123 119 114 106 101 99 98 99 99 100 102 103 101 97 93 91 90 92 95 96 96 94 93 92 93 93 93 93 92 93 96 100 106 113 118 120 119 118 116 114 114 115 113 109 104 100 98 96 96 96 98 99 100 100 100 101 101 101 101 100 99 98 98 98 98 98 96 93
145 150 158 164 166 165 160 151 143 139 139 136 136 138 135 130 128 127 124 116 107 103 102 101 101 100 102 106 106 105 101 98 95 93 93 94 96 97 94 91 91 92 93 94 93 92 91 93 97 102 107 112 114 114 113 112 112 112 113 109 106 104 103 102 102 102 102 102 102 103 102 102 101 101 100 99 99 98 99 99 98 97 95 92 88
145 146 156 165 168 166 160 153 146 143 144 140 140 142 138 133 131 130 125 116 109 106 105 104 104 104 107 108 107 105 104 102 101 99 96 95 97 98 97 93 91 92 92 93 93 93 93 93 97 101 103 105 108 110 110 110 110 110 110 108 107 107 106 105 105 106 105 105 104 103 102 102 101 100 100 101 101 101 100 99 97 95 91 88 85
148 147 153 164 169 167 162 156 151 149 148 145 145 145 141 137 135 132 124 116 111 107 107 107 108 110 111 111 108 106 105 105 106 104 101 99 99 99 100 98 95 94 93 93 92 92 92 92 95 99 102 102 103 105 106 107 108 110 111 111 110 108 105 104 104 105 105 105 104 102 101 101 102 102 103 103 102 101 99 98 95 93 89 86 83
150 147 151 161 169 169 165 161 156 153 151 149 148 147 142 139 137 132 124 117 112 109 110 110 112 116 116 116 113 109 107 108 110 109 107 105 103 101 100 99 100 100 97 94 90 90 90 90 93 97 101 103 103 103 103 105 108 111 112 113 112 108 104 103 104 104 104 104 103 102 102 102 103 103 102 101 100 99 97 95 92 89 86 83 81
153 148 150 158 166 172 170 165 160 157 154 152 151 147 142 139 136 132 124 117 113 111 113 114 116 117 117 118 115 113 114 116 115 114 114 112 108 106 102 99 100 102 101 97 92 89 88 89 93 98 100 103 104 103 103 104 107 110 112 113 113 108 105 103 104 105 105 104 104 103 103 102 102 102 101 101 99 98 95 92 88 85 81 79 78
157 151 149 155 164 173 176 170 164 159 155 154 154 148 142 139 137 132 125 118 114 113 113 115 117 118 118 117 115 115 118 120 120 120 120 117 115 113 110 105 103 103 102 101 98 93 90 90 93 97 100 102 104 104 104 105 106 108 109 109 109 107 105 105 106 106 106 106 105 104 103 103 103 103 102 101 98 96 93 89 85 82 79 78 78
163 155 151 155 163 172 179 174 166 161 156 154 155 149 142 140 138 134 128 121 117 116 115 116 117 116 115 115 115 116 117 119 120 122 122 120 119 119 117 113 111 108 105 104 103 99 96 94 94 98 102 105 105 105 105 106 106 107 107 107 107 107 108 109 110 109 108 107 106 106 106 106 105 104 102 100 97 94 90 86 82 79 78 80 82
166 158 153 156 164 171 177 176 169 163 157 154 157 152 144 140 140 137 130 125 122 120 120 118 116 114 113 114 117 118 119 120 121 122 121 119 119 120 118 118 117 115 111 108 108 105 101 99 99 102 107 108 107 106 106 106 106 107 107 107 108 109 110 112 113 111 110 108 107 107 106 107 106 104 102 99 96 92 88 83 79 79 81 84 85
169 162 157 157 164 171 174 175 171 166 159 157 160 155 145 142 141 139 131 127 126 123 123 120 116 115 115 117 119 119 119 121 122 122 121 120 120 119 118 119 120 120 118 114 112 110 107 106 104 105 109 111 110 108 107 107 107 108 109 109 111 112 113 114 114 113 111 109 108 107 107 107 106 104 102 99 95 91 86 81 79 82 85 88 89
170 164 161 159 165 173 173 171 170 168 163 161 164 157 147 144 142 139 132 130 129 125 124 122 118 116 116 118 119 118 119 120 122 124 122 120 120 119 119 119 121 123 122 118 115 115 115 114 110 108 111 113 113 111 109 109 109 109 110 111 112 114 116 115 113 111 110 109 109 109 108 107 106 104 102 98 94 89 84 81 82 86 89 91 92
169 164 164 163 167 173 173 169 169 169 166 165 164 156 149 146 143 139 135 134 131 124 122 121 118 117 117 118 117 118 120 121 124 125 122 122 123 122 122 122 124 125 125 123 121 121 121 119 115 113 114 115 116 115 112 111 109 109 109 109 111 113 113 112 110 109 109 109 109 108 107 105 104 103 101 97 92 88 83 82 86 90 92 94 94
169 166 166 166 169 172 172 170 168 169 168 165 163 156 151 148 144 140 137 137 132 124 122 120 119 121 120 116 115 118 120 121 125 124 121 120 122 122 123 126 128 128 128 127 126 125 125 121 117 114 114 116 116 115 114 111 109 108 107 107 107 108 109 108 108 108 109 109 108 107 106 105 104 102 100 96 91 87 84 86 91 94 95 96 96
170 166 165 166 169 171 171 169 168 170 169 165 160 154 151 150 145 139 138 138 133 125 122 123 126 126 121 116 115 118 119 121 123 119 116 115 115 117 119 123 126 128 129 129 128 127 125 121 117 115 115 117 116 113 111 109 108 107 107 107 107 108 109 109 109 110 111 111 111 110 108 105 104 102 98 93 89 86 85 89 94 96 96 96 95
173 167 167 167 168 171 170 169 168 170 169 164 158 152 151 151 148 142 141 139 133 127 127 130 132 126 120 119 120 120 118 118 117 114 113 114 114 113 112 113 118 122 126 129 130 129 126 124 120 116 115 116 114 111 109 107 107 107 108 108 110 112 112 111 110 111 111 112 113 110 107 105 102 99 95 90 88 85 86 92 96 96 96 95 93
179 172 170 169 167 169 171 170 169 168 166 163 158 153 154 156 153 149 146 142 133 129 132 134 131 124 122 127 129 125 121 119 117 115 115 115 114 112 109 109 112 117 123 128 131 132 129 127 122 115 112 114 113 112 109 106 104 105 107 110 113 114 113 111 110 110 110 109 107 103 100 98 96 94 91 89 87 84 88 94 97 96 96 95 94
185 180 174 172 170 169 170 171 168 166 166 165 161 158 159 162 158 155 151 145 136 131 135 135 128 126 130 135 134 128 123 120 119 117 116 114 112 110 108 107 108 113 121 128 133 134 133 130 125 118 116 118 117 111 104 100 101 102 105 110 113 113 112 111 111 111 110 106 99 93 90 90 89 89 90 90 85 84 90 96 96 95 95 95 92
187 188 180 174 173 172 171 170 167 167 168 168 166 162 162 162 158 157 154 146 136 131 134 133 129 132 137 137 133 126 121 119 116 115 114 114 112 110 106 103 104 109 117 124 131 134 134 132 128 123 124 125 119 108 100 96 97 100 108 114 114 113 112 110 110 111 111 107 98 89 84 85 86 86 87 89 87 88 93 94 93 94 95 94 91
190 192 186 177 174 174 172 171 169 168 169 169 169 166 163 161 157 157 154 145 136 132 133 134 133 138 140 136 131 124 120 119 117 116 116 115 113 110 106 104 104 107 113 119 126 131 132 132 130 126 127 127 121 111 106 101 94 95 105 115 116 116 115 112 111 111 108 103 97 87 77 78 85 87 84 85 91 95 96 94 94 96 96 94 92
191 192 190 184 178 175 175 174 170 169 170 171 170 167 164 160 153 153 151 145 140 136 137 138 138 142 142 137 132 126 123 122 120 118 118 117 114 112 109 107 107 109 112 117 123 127 130 130 129 127 128 129 125 120 115 107 98 94 99 109 116 119 117 116 116 112 102 98 95 86 71 70 82 87 85 88 97 100 99 98 98 99 98 95 92
189 189 192 192 184 177 178 177 172 170 171 172 170 166 164 160 152 151 152 150 145 142 144 144 143 146 144 139 134 129 125 124 121 120 120 120 118 114 111 111 111 111 114 119 122 124 126 126 126 126 128 128 126 123 115 101 94 97 102 108 115 120 120 120 119 114 107 104 100 89 71 62 75 86 88 93 100 103 102 101 101 101 98 92 88
189 190 191 194 190 181 179 179 174 172 171 172 172 169 168 168 164 164 163 161 156 151 152 149 146 148 146 140 135 129 127 125 123 122 122 121 118 115 114 114 113 114 117 121 122 121 122 122 123 124 124 125 123 117 109 98 93 97 106 113 115 118 120 120 119 114 112 109 100 91 77 62 75 85 88 95 101 103 102 103 103 101 95 89 86
191 193 191 191 193 187 182 182 178 174 171 172 175 175 175 177 178 175 170 166 160 155 155 153 149 149 146 142 136 130 128 127 126 124 122 119 116 114 115 116 115 116 118 120 119 119 119 119 120 121 122 123 121 112 102 99 102 103 108 114 117 118 118 119 118 116 116 109 97 89 82 78 87 91 93 98 102 101 102 104 102 98 93 88 85
189 194 193 191 194 191 186 185 182 176 173 174 179 181 183 185 185 180 174 168 164 162 161 158 153 151 147 143 139 133 131 130 130 128 125 121 118 116 116 117 115 115 117 119 119 119 119 119 119 120 122 123 120 112 104 104 108 108 107 108 112 117 119 118 117 118 118 110 97 90 87 93 100 99 100 103 103 102 102 102 98 94 91 88 86
182 190 194 194 195 192 188 187 184 179 177 179 182 188 191 191 187 181 176 172 169 167 166 163 158 154 150 148 144 140 137 136 136 134 128 124 121 118 117 117 116 115 115 118 119 118 119 120 120 121 122 122 119 115 111 110 110 109 109 108 107 112 119 120 118 117 116 109 101 98 99 104 104 103 106 108 106 103 100 97 94 91 89 87 86
184 192 194 193 195 193 189 188 187 183 182 184 187 193 195 192 187 183 178 176 173 171 169 168 165 160 157 155 153 150 147 145 143 139 133 128 125 120 117 117 116 115 115 117 116 117 119 120 122 123 123 123 121 119 117 115 112 111 113 113 109 109 118 122 118 114 111 107 106 108 111 111 106 105 109 110 108 104 98 95 93 91 89 87 85
188 193 194 193 195 195 192 190 189 188 187 189 191 196 197 193 188 184 182 181 179 176 174 173 171 169 167 165 163 160 158 155 152 147 142 136 132 127 121 117 117 116 116 116 116 117 120 123 125 125 125 126 126 123 121 121 120 119 118 115 111 111 115 120 117 111 108 107 110 114 118 117 115 114 114 111 108 104 100 97 95 93 91 88 84
Height
5894 5894 5895 5896 5896 5896 5895 5895 5895 5895 5895 5895 5895 5895 5895 5895 5895 5895 5895 5895 5895 5895 5895 5895 5895 5895 5895 5896 5896 5896 5895 5895 5895 5896 5896 5897 5898 5899 5899 5899 5900 5900 5900 5901 5901 5900 5899 5900 5900 5900 5900 5899 5899 5900 5901 5901 5901 5901 5901 5901 5901 5902 5902 5902 5902 5901 5901 5901 5901 5901 5901 5902 5902 5902 5903 5903 5904 5905 5905 5905 5904 5904 5905 5905 5905
5895 5895 5896 5897 5897 5896 5896 5896 5896 5896 5896 5896 5896 5896 5896 5896 5896 5896 5896 5895 5895 5896 5896 5896 5896 5896 5896 5897 5897 5897 5896 5896 5896 5896 5897 5897 5897 5898 5898 5899 5900 5901 5901 5902 5901 5901 5900 5900 5901 5901 5901 5901 5900 5900 5901 5901 5901 5901 5901 5901 5901 5901 5901 5901 5901 5901 5901 5901 5901 5901 5902 5903 5903 5903 5903 5904 5904 5905 5905 5905 5905 5905 5905 5905 5905
5895 5896 5897 5897 5897 5897 5897 5897 5897 5896 5897 5897 5897 5897 5897 5897 5897 5897 5897 5897 5897 5897 5897 5897 5897 5898 5898 5898 5898 5898 5897 5897 5897 5897 5898 5898 5897 5897 5897 5898 5899 5901 5902 5901 5901 5901 5901 5900 5901 5901 5902 5902 5901 5901 5901 5902 5901 5901 5901 5901 5901 5901 5901 5901 5901 5901 5901 5901 5901 5902 5903 5904 5904 5903 5903 5904 5905 5906 5906 5906 5906 5906 5906 5906 5906
5897 5897 5897 5897 5898 5898 5898 5898 5897 5897 5897 5898 5898 5898 5897 5898 5898 5898 5898 5898 5898 5898 5899 5899 5899 5899 5899 5899 5899 5898 5898 5898 5898 5898 5898 5898 5897 5897 5896 5897 5899 5900 5901 5901 5901 5902 5901 5901 5901 5901 5901 5901 5901 5901 5902 5902 5902 5901 5901 5901 5901 5902 5901 5901 5901 5902 5901 5901 5901 5902 5904 5905 5904 5903 5904 5905 5905 5906 5907 5906 5907 5907 5907 5906 5906
5898 5897 5898 5898 5898 5898 5898 5898 5898 5898 5899 5899 5899 5899 5899 5899 5899 5899 5899 5899 5900 5900 5900 5900 5900 5900 5900 5900 5899 5899 5899 5899 5899 5899 5899 5898 5897 5896 5896 5897 5899 5899 5899 5900 5901 5902 5902 5902 5902 5901 5900 5900 5901 5901 5901 5901 5901 5902 5901 5901 5901 5901 5902 5902 5902 5902 5901 5901 5901 5903 5905 5905 5903 5903 5904 5906 5906 5907 5907 5907 5907 5907 5907 5907 5907
5899 5898 5898 5899 5899 5899 5899 5899 5899 5899 5900 5900 5900 5900 5900 5900 5901 5901 5901 5901 5901 5902 5902 5902 5902 5901 5901 5900 5900 5900 5900 5900 5900 5899 5899 5899 5898 5897 5896 5898 5898 5898 5899 5900 5901 5901 5901 5902 5902 5901 5900 5901 5901 5901 5900 5900 5901 5902 5902 5901 5900 5900 5901 5901 5901 5901 5901 5902 5903 5905 5905 5904 5903 5904 5905 5906 5907 5908 5908 5908 5908 5907 5907 5907 5908
5900 5900 5900 5900 5900 5899 5900 5900 5900 5901 5901 5902 5902 5902 5902 5902 5902 5903 5902 5902 5903 5903 5903 5903 5903 5902 5902 5901 5901 5901 5901 5901 5901 5901 5901 5900 5899 5898 5897 5897 5898 5898 5899 5899 5901 5901 5901 5901 5902 5902 5902 5902 5902 5902 5901 5900 5901 5902 5902 5901 5901 5900 5901 5901 5901 5902 5903 5904 5905 5906 5905 5904 5904 5905 5906 5908 5908 5909 5909 5909 5908 5908 5908 5908 5909
5902 5902 5901 5901 5901 5901 5901 5901 5901 5902 5903 5903 5903 5903 5903 5904 5904 5904 5904 5904 5904 5904 5904 5904 5903 5903 5903 5903 5902 5902 5902 5902 5902 5902 5902 5902 5900 5899 5897 5896 5897 5899 5899 5900 5900 5900 5901 5901 5902 5902 5903 5903 5903 5903 5903 5902 5901 5901 5901 5900 5901 5902 5902 5903 5904 5905 5905 5905 5905 5905 5905 5905 5906 5907 5908 5909 5909 5910 5910 5910 5909 5909 5910 5910 5910
5903 5903 5903 5903 5902 5902 5902 5902 5903 5903 5904 5904 5905 5905 5905 5905 5905 5905 5905 5905 5906 5905 5905 5904 5904 5904 5904 5903 5903 5904 5904 5904 5903 5903 5903 5903 5902 5901 5898 5897 5896 5897 5899 5900 5900 5901 5901 5902 5902 5903 5903 5904 5904 5904 5904 5903 5903 5901 5900 5900 5901 5901 5902 5903 5903 5904 5903 5903 5904 5905 5905 5906 5908 5908 5909 5910 5910 5911 5911 5911 5910 5911 5911 5911 5911
5904 5904 5904 5904 5904 5903 5903 5903 5904 5905 5905 5906 5906 5906 5906 5906 5906 5906 5907 5907 5906 5906 5905 5904 5904 5904 5904 5904 5904 5905 5905 5905 5905 5904 5904 5903 5903 5902 5900 5898 5897 5896 5898 5900 5902 5903 5903 5903 5903 5904 5904 5905 5905 5904 5904 5904 5903 5903 5902 5901 5901 5900 5900 5900 5900 5901 5902 5903 5905 5906 5907 5908 5909 5910 5910 5911 5911 5912 5912 5912 5911 5912 5912 5912 5912
5904 5905 5905 5905 5905 5905 5905 5905 5905 5906 5907 5907 5907 5907 5907 5907 5907 5908 5908 5908 5907 5907 5906 5905 5905 5905 5905 5905 5905 5906 5906 5906 5906 5905 5905 5904 5904 5903 5902 5901 5899 5897 5898 5900 5902 5904 5904 5904 5905 5905 5905 5904 5904 5904 5904 5904 5904 5904 5903 5903 5902 5901 5901 5901 5902 5903 5904 5905 5907 5908 5909 5910 5911 5911 5912 5912 5912 5912 5912 5913 5913 5913 5913 5913 5913
5905 5905 5905 5905 5905 5906 5906 5906 5906 5907 5908 5908 5908 5908 5908 5909 5909 5909 5909 5909 5908 5908 5907 5907 5906 5907 5907 5906 5907 5907 5907 5906 5906 5906 5905 5905 5904 5904 5904 5903 5902 5900 5899 5899 5901 5902 5903 5903 5904 5904 5904 5904 5904 5904 5904 5904 5905 5905 5905 5905 5904 5905 5905 5905 5906 5906 5907 5908 5909 5910 5911 5912 5912 5912 5913 5913 5913 5913 5913 5913 5914 5914 5914 5915 5914
5905 5906 5906 5906 5906 5907 5907 5907 5907 5908 5909 5909 5910 5910 5910 5910 5910 5910 5910 5909 5909 5909 5909 5909 5908 5908 5908 5908 5908 5907 5907 5907 5907 5906 5906 5905 5905 5905 5905 5904 5904 5903 5902 5901 5901 5902 5902 5903 5903 5904 5904 5904 5905 5905 5905 5905 5906 5907 5907 5907 5908 5908 5908 5908 5909 5909 5910 5910 5911 5912 5913 5913 5913 5913 5914 5914 5914 5914 5914 5914 5914 5915 5915 5916 5915
5906 5906 5907 5907 5907 5907 5908 5908 5909 5909 5910 5910 5911 5911 5911 5910 5910 5910 5911 5911 5911 5911 5910 5910 5910 5910 5909 5909 5909 5909 5909 5908 5908 5907 5907 5907 5906 5906 5906 5906 5905 5906 5905 5905 5904 5904 5905 5905 5906 5906 5906 5907 5907 5907 5907 5907 5908 5908 5909 5910 5910 5910 5910 5911 5911 5911 5912 5912 5913 5913 5914 5914 5914 5914 5914 5914 5914 5914 5914 5915 5915 5916 5916 5916 5916
5906 5907 5907 5907 5907 5908 5909 5909 5910 5910 5911 5911 5912 5912 5911 5911 5911 5911 5912 5912 5912 5912 5912 5912 5912 5911 5911 5910 5910 5910 5910 5910 5909 5909 5909 5908 5908 5907 5907 5907 5907 5907 5908 5908 5908 5908 5908 5908 5908 5908 5909 5909 5909 5909 5909 5910 5910 5910 5911 5911 5912 5912 5912 5913 5913 5914 5914 5914 5914 5914 5915 5915 5915 5915 5915 5915 5915 5915 5915 5916 5916 5917 5917 5917 5917
5907 5907 5908 5908 5908 5909 5909 5910 5910 5911 5911 5912 5912 5912 5912 5912 5912 5913 5913 5913 5913 5913 5913 5913 5913 5913 5912 5912 5911 5911 5911 5911 5910 5910 5910 5910 5909 5909 5909 5909 5909 5909 5909 5910 5910 5910 5911 5911 5911 5911 5911 5912 5911 5911 5912 5912 5913 5913 5913 5913 5913 5914 5914 5915 5915 5916 5916 5916 5916 5915 5916 5916 5915 5915 5915 5915 5915 5916 5916 5917 5917 5918 5918 5918 5919
5907 5908 5908 5908 5909 5909 5910 5911 5911 5912 5912 5913 5913 5913 5913 5913 5914 5914 5914 5914 5915 5915 5915 5915 5914 5914 5913 5913 5913 5913 5912 5912 5912 5912 5912 5912 5911 5911 5911 5911 5911 5911 5911 5912 5912 5913 5913 5913 5913 5914 5914 5914 5914 5914 5914 5914 5915 5915 5915 5915 5915 5915 5916 5916 5916 5917 5917 5917 5917 5916 5916 5916 5916 5916 5916 5916 5916 5916 5917 5918 5918 5919 5919 5920 5920
5908 5909 5909 5909 5910 5910 5911 5912 5912 5912 5913 5914 5914 5914 5914 5915 5915 5915 5915 5916 5916 5916 5916 5916 5915 5915 5915 5914 5914 5914 5914 5914 5913 5913 5913 5913 5913 5913 5913 5913 5913 5913 5913 5913 5914 5914 5915 5915 5915 5915 5916 5916 5916 5916 5916 5917 5917 5917 5917 5917 5917 5917 5917 5918 5918 5918 5918 5918 5917 5917 5917 5917 5917 5917 5917 5917 5917 5918 5918 5919 5919 5920 5920 5921 5921
5909 5909 5910 5910 5911 5912 5912 5913 5913 5913 5914 5914 5915 5915 5915 5916 5916 5917 5917 5917 5917 5917 5916 5916 5916 5916 5916 5916 5915 5915 5915 5915 5915 5915 5915 5915 5914 5914 5914 5914 5914 5914 5914 5915 5915 5916 5916 5916 5916 5917 5917 5917 5918 5918 5918 5918 5918 5919 5919 5919 5919 5919 5918 5919 5919 5919 5918 5918 5918 5918 5918 5918 5918 5918 5918 5918 5919 5919 5920 5920 5921 5921 5922 5923 5923
5909 5910 5910 5911 5912 5912 5913 5913 5914 5914 5915 5915 5916 5916 5916 5917 5917 5918 5918 5918 5918 5918 5917 5917 5917 5917 5917 5917 5917 5916 5916 5916 5916 5916 5916 5916 5916 5916 5916 5915 5915 5915 5915 5916 5916 5917 5917 5917 5917 5918 5918 5918 5919 5919 5919 5920 5920 5920 5920 5920 5920 5920 5919 5919 5919 5919 5919 5919 5919 5919 5919 5919 5919 5920 5920 5920 5920 5921 5922 5922 5923 5923 5924 5924 5924
5909 5910 5911 5912 5912 5913 5914 5914 5915 5915 5915 5916 5917 5917 5917 5918 5918 5919 5919 5919 5919 5919 5918 5918 5918 5918 5918 5918 5918 5918 5918 5918 5918 5917 5917 5917 5917 5917 5917 5917 5917 5917 5917 5917 5917 5917 5918 5918 5918 5918 5919 5919 5919 5920 5921 5921 5921 5921 5922 5922 5921 5921 5920 5920 5920 5920 5920 5920 5920 5920 5920 5920 5921 5921 5921 5922 5922 5923 5923 5924 5924 5925 5925 5925 5925
5910 5910 5911 5912 5913 5914 5914 5915 5916 5916 5916 5917 5917 5918 5918 5919 5919 5920 5920 5920 5920 5920 5919 5919 5919 5919 5919 5920 5920 5919 5919 5919 5919 5918 5918 5918 5918 5918 5918 5918 5918 5918 5918 5918 5918 5918 5919 5919 5919 5919 5920 5920 5920 5921 5921 5922 5922 5923 5923 5923 5922 5922 5921 5921 5921 5921 5921 5921 5921 5922 5922 5922 5922 5923 5923 5923 5924 5924 5925 5925 5926 5926 5926 5927 5927
5910 5911 5912 5913 5914 5914 5915 5916 5916 5917 5917 5917 5918 5918 5919 5919 5920 5921 5921 5921 5921 5921 5920 5920 5920 5920 5920 5921 5921 5920 5920 5920 5920 5920 5920 5919 5920 5920 5920 5920 5920 5920 5920 5920 5920 5920 5920 5920 5920 5920 5920 5921 5922 5922 5922 5923 5923 5924 5924 5923 5923 5923 5923 5922 5922 5923 5923 5923 5923 5924 5924 5924 5924 5924 5925 5925 5926 5926 5926 5927 5927 5928 5928 5928 5929
5910 5911 5912 5913 5914 5915 5915 5916 5917 5918 5918 5918 5918 5919 5919 5920 5921 5921 5922 5922 5922 5922 5921 5921 5921 5921 5922 5922 5922 5922 5921 5921 5921 5921 5921 5921 5921 5921 5922 5922 5922 5922 5922 5921 5921 5921 5921 5922 5921 5921 5922 5922 5923 5923 5924 5924 5924 5925 5925 5925 5925 5925 5924 5924 5924 5925 5925 5925 5925 5926 5926 5926 5926 5926 5926 5927 5927 5928 5928 5929 5929 5930 5930 5930 5930
5911 5911 5912 5913 5914 5915 5916 5916 5917 5918 5918 5919 5919 5919 5920 5920 5921 5922 5922 5923 5922 5922 5922 5922 5922 5923 5923 5923 5923 5923 5923 5922 5922 5922 5923 5923 5923 5923 5923 5923 5923 5923 5923 5923 5923 5923 5923 5923 5923 5923 5924 5924 5924 5925 5925 5925 5925 5926 5926 5927 5927 5927 5927 5927 5927 5927 5927 5928 5928 5928 5928 5928 5928 5928 5929 5929 5930 5930 5931 5931 5932 5932 5932 5931 5931
5910 5911 5912 5913 5914 5915 5916 5917 5917 5918 5919 5920 5920 5920 5921 5921 5922 5922 5923 5923 5923 5923 5923 5923 5923 5923 5924 5924 5924 5924 5924 5924 5924 5924 5924 5924 5924 5924 5924 5925 5925 5925 5925 5925 5925 5925 5925 5925 5925 5925 5926 5926 5926 5926 5926 5927 5927 5927 5928 5929 5929 5929 5929 5929 5929 5929 5930 5930 5930 5930 5929 5930 5930 5931 5931 5931 5932 5932 5933 5933 5933 5933 5933 5933 5932
5910 5911 5912 5914 5915 5915 5916 5917 5918 5918 5919 5920 5921 5921 5922 5922 5922 5923 5924 5924 5924 5924 5924 5924 5924 5924 5925 5925 5925 5925 5925 5925 5925 5925 5925 5925 5925 5926 5926 5926 5926 5926 5926 5927 5927 5927 5927 5927 5927 5927 5927 5928 5928 5928 5928 5928 5929 5929 5930 5931 5931 5931 5931 5931 5931 5931 5931 5932 5932 5932 5931 5932 5932 5933 5933 5934 5934 5934 5934 5934 5934 5934 5934 5934 5933
5910 5911 5912 5914 5915 5916 5917 5917 5918 5919 5920 5921 5922 5922 5922 5923 5923 5923 5924 5924 5924 5925 5925 5925 5925 5925 5925 5925 5925 5925 5926 5926 5926 5926 5927 5927 5927 5927 5928 5928 5928 5928 5928 5928 5929 5929 5929 5929 5929 5929 5929 5930 5930 5930 5930 5930 5931 5931 5932 5932 5933 5933 5933 5933 5933 5933 5933 5934 5934 5934 5934 5934 5935 5935 5935 5936 5936 5936 5936 5936 5936 5936 5935 5935 5934
5911 5912 5913 5914 5915 5916 5917 5918 5919 5920 5921 5922 5922 5923 5923 5923 5923 5924 5924 5924 5924 5925 5926 5926 5926 5926 5926 5926 5926 5926 5927 5927 5927 5928 5928 5929 5929 5929 5929 5929 5930 5930 5930 5930 5930 5931 5931 5931 5931 5931 5931 5932 5932 5932 5932 5932 5933 5933 5934 5934 5934 5934 5934 5935 5935 5936 5936 5936 5936 5936 5936 5937 5937 5937 5937 5937 5937 5937 5937 5937 5937 5937 5937 5936 5935
5911 5912 5913 5914 5915 5916 5917 5919 5920 5920 5921 5922 5923 5923 5923 5924 5924 5924 5924 5925 5925 5926 5926 5927 5927 5927 5927 5927 5927 5927 5928 5928 5928 5929 5930 5930 5930 5931 5931 5931 5931 5931 5931 5932 5932 5932 5932 5933 5933 5933 5933 5934 5934 5934 5934 5934 5935 5935 5936 5936 5936 5935 5936 5937 5937 5938 5938 5938 5938 5938 5938 5939 5939 5939 5939 5939 5939 5939 5939 5939 5939 5938 5938 5937 5937
5911 5912 5913 5914 5915 5916 5918 5919 5920 5921 5922 5922 5923 5923 5924 5924 5924 5925 5925 5925 5926 5926 5927 5928 5928 5928 5928 5928 5928 5928 5929 5929 5930 5930 5931 5931 5932 5932 5932 5933 5933 5933 5933 5933 5934 5934 5934 5935 5935 5935 5935 5936 5936 5936 5936 5936 5937 5937 5938 5938 5938 5937 5937 5938 5939 5940 5940 5940 5940 5940 5940 5940 5940 5940 5941 5941 5941 5940 5940 5940 5940 5940 5939 5939 5938
5912 5912 5913 5914 5915 5916 5918 5919 5920 5921 5922 5922 5923 5924 5924 5925 5925 5925 5926 5926 5926 5927 5927 5928 5929 5929 5929 5929 5929 5930 5930 5931 5931 5931 5932 5932 5933 5933 5934 5934 5934 5935 5935 5935 5936 5936 5936 5937 5937 5937 5937 5938 5938 5938 5938 5938 5938 5938 5939 5939 5940 5939 5939 5940 5941 5941 5941 5942 5942 5942 5942 5942 5942 5942 5942 5942 5942 5942 5941 5941 5941 5941 5940 5940 5939
5912 5913 5913 5914 5915 5916 5918 5919 5920 5921 5922 5922 5924 5924 5924 5925 5926 5926 5926 5927 5927 5927 5928 5928 5929 5929 5930 5930 5931 5931 5932 5932 5932 5932 5932 5933 5934 5934 5935 5935 5936 5936 5936 5937 5937 5938 5938 5939 5939 5939 5939 5939 5940 5940 5940 5940 5940 5940 5940 5941 5941 5941 5941 5942 5942 5943 5943 5943 5943 5943 5943 5943 5943 5943 5943 5943 5943 5943 5943 5943 5942 5942 5941 5941 5941
5912 5913 5913 5914 5915 5916 5918 5919 5920 5921 5922 5923 5924 5925 5925 5925 5926 5927 5927 5928 5928 5928 5928 5929 5929 5930 5931 5931 5932 5932 5933 5933 5934 5934 5934 5934 5934 5935 5936 5936 5937 5938 5938 5938 5939 5939 5940 5941 5941 5941 5941 5941 5941 5942 5942 5942 5942 5942 5942 5943 5943 5943 5943 5944 5944 5944 5945 5945 5944 5944 5944 5944 5944 5944 5944 5944 5944 5944 5944 5944 5943 5943 5943 5942 5942
5912 5913 5914 5914 5915 5916 5917 5919 5920 5922 5922 5923 5924 5925 5925 5926 5927 5927 5928 5928 5928 5929 5929 5930 5930 5931 5932 5932 5933 5933 5934 5934 5935 5935 5935 5936 5936 5936 5937 5937 5938 5939 5939 5940 5940 5941 5942 5942 5943 5943 5943 5943 5943 5943 5943 5943 5944 5944 5944 5945 5945 5946 5946 5946 5945 5946 5946 5946 5946 5945 5945 5945 5945 5945 5945 5945 5945 5945 5945 5945 5944 5944 5944 5943 5942
5912 5913 5914 5914 5915 5916 5918 5919 5920 5921 5922 5924 5925 5926 5926 5927 5927 5928 5928 5929 5929 5929 5930 5930 5931 5932 5932 5933 5934 5934 5935 5935 5936 5937 5937 5937 5938 5938 5938 5939 5939 5940 5940 5941 5942 5943 5943 5944 5944 5944 5944 5944 5944 5945 5945 5945 5945 5946 5946 5946 5947 5948 5948 5947 5947 5947 5947 5947 5947 5947 5946 5946 5946 5947 5947 5947 5946 5946 5946 5946 5945 5945 5944 5944 5943
5912 5913 5914 5914 5915 5916 5918 5919 5920 5921 5923 5924 5925 5926 5927 5927 5928 5929 5929 5930 5930 5930 5930 5931 5932 5933 5933 5934 5934 5935 5936 5937 5937 5937 5937 5938 5939 5939 5940 5940 5941 5941 5942 5942 5943 5944 5944 5945 5946 5946 5946 5946 5946 5946 5946 5947 5947 5947 5948 5948 5949 5949 5949 5949 5949 5948 5948 5948 5948 5948 5948 5948 5948 5948 5948 5948 5948 5947 5947 5947 5946 5946 5945 5944 5944
5912 5913 5914 5915 5915 5916 5917 5919 5920 5922 5923 5924 5925 5926 5927 5928 5929 5929 5930 5931 5931 5931 5931 5932 5933 5934 5934 5934 5935 5937 5937 5938 5938 5938 5938 5939 5940 5940 5941 5941 5942 5942 5943 5943 5944 5945 5945 5946 5947 5947 5947 5948 5948 5948 5948 5948 5948 5948 5949 5950 5950 5951 5951 5950 5950 5950 5950 5950 5950 5949 5949 5949 5949 5949 5949 5949 5949 5948 5948 5947 5947 5946 5946 5945 5945
5911 5912 5914 5914 5915 5916 5918 5919 5920 5922 5923 5925 5925 5926 5927 5929 5929 5930 5931 5932 5932 5932 5932 5933 5934 5935 5935 5935 5937 5938 5938 5939 5939 5939 5939 5940 5940 5941 5941 5941 5942 5943 5943 5944 5945 5945 5946 5947 5948 5948 5949 5949 5949 5949 5949 5950 5950 5950 5950 5951 5951 5952 5952 5952 5951 5951 5951 5951 5951 5951 5951 5951 5950 5950 5950 5950 5950 5949 5949 5949 5948 5947 5947 5947 5947
5911 5912 5913 5914 5915 5916 5918 5919 5921 5922 5923 5925 5926 5926 5928 5929 5930 5930 5931 5932 5932 5933 5934 5935 5935 5935 5936 5937 5938 5939 5939 5940 5940 5940 5941 5941 5942 5942 5942 5942 5943 5943 5944 5945 5946 5947 5948 5949 5949 5949 5950 5950 5950 5950 5951 5951 5951 5951 5951 5952 5952 5953 5953 5953 5953 5952 5953 5953 5953 5953 5952 5952 5952 5951 5951 5951 5951 5950 5950 5950 5949 5949 5949 5949 5949
5911 5912 5913 5914 5915 5916 5917 5919 5921 5922 5924 5925 5925 5926 5928 5929 5930 5931 5931 5932 5933 5933 5935 5935 5935 5936 5937 5939 5940 5940 5940 5941 5941 5942 5942 5942 5943 5943 5944 5944 5944 5945 5945 5946 5947 5948 5949 5950 5950 5951 5951 5951 5952 5952 5952 5952 5953 5952 5953 5953 5954 5954 5954 5954 5953 5953 5954 5954 5954 5954 5954 5953 5953 5952 5952 5952 5952 5952 5951 5951 5951 5950 5951 5951 5951
5911 5912 5913 5914 5915 5916 5917 5919 5921 5922 5923 5924 5925 5926 5928 5929 5930 5931 5932 5933 5933 5934 5935 5936 5936 5937 5939 5940 5941 5941 5941 5942 5942 5943 5943 5943 5944 5944 5945 5945 5945 5946 5947 5948 5949 5950 5950 5951 5952 5952 5952 5953 5953 5953 5954 5954 5954 5954 5954 5955 5955 5955 5955 5955 5954 5954 5955 5955 5955 5955 5955 5955 5954 5953 5953 5953 5952 5952 5952 5952 5952 5952 5952 5952 5952
5911 5912 5913 5914 5915 5916 5918 5919 5921 5922 5924 5925 5926 5927 5928 5929 5931 5932 5932 5933 5934 5935 5936 5937 5937 5939 5940 5941 5941 5941 5942 5943 5943 5944 5944 5945 5945 5945 5945 5946 5946 5947 5948 5949 5950 5951 5952 5952 5953 5953 5954 5954 5955 5955 5955 5956 5956 5956 5956 5956 5956 5956 5956 5956 5956 5956 5956 5956 5956 5956 5956 5956 5955 5955 5954 5954 5953 5953 5953 5953 5953 5953 5953 5953 5953
5911 5912 5914 5915 5915 5916 5918 5919 5921 5923 5924 5925 5926 5928 5929 5930 5931 5933 5934 5934 5935 5936 5937 5938 5939 5940 5941 5942 5942 5942 5943 5944 5945 5946 5946 5946 5946 5946 5947 5947 5948 5948 5949 5950 5951 5952 5953 5954 5954 5955 5955 5956 5956 5956 5957 5957 5957 5957 5957 5956 5957 5957 5957 5957 5957 5958 5957 5957 5957 5957 5957 5957 5957 5956 5956 5955 5954 5954 5954 5954 5954 5955 5955 5955 5954
5910 5911 5913 5915 5915 5916 5917 5919 5921 5922 5924 5926 5927 5928 5930 5931 5932 5933 5934 5935 5936 5937 5938 5939 5939 5941 5942 5943 5943 5944 5944 5945 5946 5947 5947 5948 5948 5948 5948 5949 5949 5950 5951 5952 5952 5953 5954 5955 5955 5956 5956 5957 5957 5958 5958 5958 5957 5957 5957 5957 5958 5958 5958 5958 5958 5958 5959 5958 5958 5958 5958 5959 5958 5957 5957 5957 5956 5955 5955 5955 5956 5956 5956 5956 5955
5910 5911 5913 5914 5916 5917 5918 5919 5921 5923 5924 5926 5927 5928 5930 5931 5932 5933 5934 5935 5936 5937 5938 5939 5940 5941 5943 5943 5944 5945 5945 5946 5947 5948 5948 5949 5949 5949 5950 5950 5950 5951 5952 5953 5953 5954 5955 5956 5956 5957 5957 5958 5958 5958 5958 5958 5958 5958 5958 5958 5959 5959 5959 5959 5959 5959 5960 5960 5959 5959 5959 5960 5960 5959 5959 5958 5958 5957 5956 5957 5957 5957 5957 5957 5957
5909 5910 5912 5914 5916 5917 5918 5920 5921 5923 5924 5926 5927 5929 5930 5931 5932 5933 5933 5935 5936 5937 5939 5940 5941 5942 5943 5944 5944 5945 5946 5947 5948 5949 5949 5950 5950 5950 5951 5951 5952 5952 5953 5954 5954 5955 5955 5956 5957 5958 5958 5958 5959 5959 5959 5959 5959 5959 5959 5959 5959 5960 5960 5960 5960 5960 5961 5960 5960 5959 5960 5961 5961 5961 5960 5960 5960 5959 5958 5958 5958 5958 5958 5958 5958
5909 5910 5911 5914 5916 5917 5918 5920 5921 5923 5925 5926 5927 5928 5929 5931 5932 5933 5934 5935 5936 5937 5939 5940 5941 5942 5943 5944 5945 5946 5946 5948 5949 5950 5950 5951 5951 5951 5952 5953 5953 5953 5954 5955 5955 5956 5956 5957 5958 5958 5959 5959 5959 5959 5960 5960 5960 5960 5960 5960 5960 5960 5961 5961 5961 5961 5961 5961 5960 5960 5961 5962 5962 5962 5962 5962 5961 5961 5960 5960 5959 5959 5959 5959 5959
5909 5909 5910 5912 5915 5916 5918 5920 5921 5923 5925 5926 5927 5928 5929 5930 5932 5933 5935 5936 5937 5938 5939 5940 5941 5942 5943 5944 5945 5946 5947 5948 5949 5950 5951 5951 5952 5952 5953 5954 5954 5955 5955 5956 5956 5956 5957 5958 5958 5959 5960 5960 5960 5960 5960 5961 5961 5961 5961 5962 5961 5961 5962 5962 5961 5961 5961 5961 5961 5961 5962 5963 5963 5963 5963 5963 5962 5962 5962 5961 5961 5961 5961 5961 5960
5908 5909 5910 5912 5914 5916 5918 5920 5921 5923 5925 5926 5927 5928 5929 5930 5932 5933 5935 5936 5937 5938 5939 5941 5942 5942 5943 5944 5945 5946 5947 5948 5949 5950 5951 5952 5953 5953 5954 5955 5955 5956 5956 5957 5957 5957 5958 5958 5959 5960 5960 5960 5961 5961 5961 5962 5962 5962 5962 5962 5962 5962 5963 5963 5962 5962 5962 5962 5962 5962 5963 5963 5964 5964 5964 5964 5963 5963 5963 5963 5962 5962 5962 5962 5962
5908 5909 5910 5911 5914 5916 5918 5919 5921 5923 5924 5926 5927 5928 5930 5931 5931 5933 5934 5935 5936 5937 5939 5940 5941 5942 5943 5944 5945 5947 5947 5948 5949 5950 5951 5952 5953 5954 5955 5955 5956 5956 5957 5957 5957 5958 5959 5959 5960 5960 5960 5961 5961 5961 5962 5962 5962 5963 5963 5963 5963 5963 5964 5963 5963 5962 5962 5962 5963 5963 5964 5964 5964 5965 5965 5965 5964 5964 5964 5964 5964 5963 5963 5963 5963